Location: Tel Aviv
(32.0670°N, 34.7670°E)
Time: 12:49:38
(UTC+03:00)

Explorer 11/Cluster Stage 4 - Pass Details

Date: 14 September 2024
Orbit: 464 x 1208 km, 28.8° (Epoch: 05 October)

Event Time Altitude Azimuth Distance (km) Brightness Sun altitude
Rises 10:33:34 0° 270° (W) 3,974 9.9 49.2°
Reaches altitude 10° 10:36:20 10° 268° (W) 3,072 9.4 49.6°
Maximum altitude 10:44:06 66° 189° (S) 1,307 8.9 50.9°
Drops below altitude 10° 10:51:52 10° 109° (ESE) 3,078 10.3 52.1°
Sets 10:54:39 0° 106° (ESE) 3,983 10.7 52.5°
